NOZ235 EKCH-EGKK

Flight info

Callsign NOZ235
Flight time 1h 42m
Altitude 38000
Route ODDON DCT LONAM DCT BINBO DCT AKOKO N866 BUKUT P7 BARMI
Aircraft B38M/M-SDE1FGHILORVWXY/HB1

Departure

Time 2026-05-04 18:45
Airport Copenhagen Kastrup Airport (EKCH)

Arrival

Time 2026-05-04 20:27
Airport London Gatwick Airport (EGKK)
Time Latitude Longitude Altitude Speed Heading
2026-05-04 18:02 55.62641 12.65062 23 ft 0 kts 285°
2026-05-04 18:03 55.62707 12.65395 20 ft 0 kts 45°
2026-05-04 18:29 55.62699 12.65381 21 ft 2 kts 42°
2026-05-04 18:29 55.62686 12.65361 21 ft 2 kts 39°
2026-05-04 18:29 55.62673 12.65344 19 ft 2 kts 33°
2026-05-04 18:29 55.62659 12.65329 22 ft 2 kts 22°
2026-05-04 18:30 55.62627 12.65322 21 ft 2 kts 351°
2026-05-04 18:30 55.62620 12.65324 22 ft 0 kts 354°
2026-05-04 18:30 55.62611 12.65326 24 ft 2 kts
2026-05-04 18:31 55.62595 12.65323 23 ft 2 kts
2026-05-04 18:31 55.62579 12.65320 23 ft 2 kts 360°
2026-05-04 18:31 55.62559 12.65320 22 ft 3 kts 359°
2026-05-04 18:31 55.62553 12.65320 21 ft 0 kts 360°
2026-05-04 18:34 55.62554 12.65320 21 ft 1 kts 360°
2026-05-04 18:34 55.62575 12.65320 23 ft 6 kts 360°
2026-05-04 18:35 55.62635 12.65298 23 ft 10 kts 327°
2026-05-04 18:35 55.62652 12.65251 20 ft 2 kts 272°
2026-05-04 18:35 55.62642 12.65207 22 ft 6 kts 237°
2026-05-04 18:35 55.62606 12.65175 20 ft 6 kts 181°
2026-05-04 18:36 55.62539 12.65176 22 ft 12 kts 176°
2026-05-04 18:36 55.62446 12.65187 21 ft 16 kts 176°
2026-05-04 18:36 55.62326 12.65192 24 ft 17 kts 189°
2026-05-04 18:36 55.62294 12.65032 27 ft 17 kts 295°
2026-05-04 18:37 55.62348 12.64856 28 ft 16 kts 277°
2026-05-04 18:37 55.62323 12.64699 23 ft 8 kts 245°
2026-05-04 18:37 55.62313 12.64660 24 ft 0 kts 246°
2026-05-04 18:38 55.62311 12.64654 21 ft 2 kts 246°
2026-05-04 18:39 55.62300 12.64609 23 ft 6 kts 246°
2026-05-04 18:39 55.62281 12.64534 20 ft 7 kts 246°
2026-05-04 18:39 55.62258 12.64449 20 ft 8 kts 244°
2026-05-04 18:39 55.62215 12.64360 17 ft 12 kts 212°
2026-05-04 18:40 55.62135 12.64292 18 ft 13 kts 205°
2026-05-04 18:40 55.62053 12.64224 22 ft 13 kts 205°
2026-05-04 18:40 55.61967 12.64153 21 ft 14 kts 205°
2026-05-04 18:40 55.61878 12.64082 24 ft 14 kts 198°
2026-05-04 18:41 55.61776 12.64078 21 ft 13 kts 176°
2026-05-04 18:41 55.61754 12.64081 20 ft 0 kts 176°
2026-05-04 18:42 55.61752 12.64081 23 ft 1 kts 176°
2026-05-04 18:42 55.61727 12.64084 21 ft 7 kts 176°
2026-05-04 18:42 55.61648 12.64081 22 ft 14 kts 195°
2026-05-04 18:42 55.61600 12.64028 21 ft 0 kts 220°
2026-05-04 18:43 55.61509 12.63887 21 ft 49 kts 221°
2026-05-04 18:43 55.61062 12.63192 26 ft 119 kts 221°
2026-05-04 18:44 55.60321 12.62017 170 ft 160 kts 225°
2026-05-04 18:44 55.60029 12.61565 263 ft 171 kts 224°
2026-05-04 18:44 55.58175 12.58728 315 ft 242 kts 222°
2026-05-04 18:44 55.56854 12.56692 497 ft 254 kts 225°
2026-05-04 18:45 55.55888 12.54317 627 ft 229 kts 250°
2026-05-04 18:45 55.55606 12.51748 930 ft 202 kts 271°
2026-05-04 18:45 55.55807 12.49351 1259 ft 197 kts 282°
2026-05-04 18:45 55.56103 12.46854 1523 ft 219 kts 282°
2026-05-04 18:46 55.56426 12.44122 1822 ft 233 kts 282°
2026-05-04 18:46 55.56759 12.41305 2136 ft 234 kts 282°
2026-05-04 18:46 55.57095 12.38463 2461 ft 239 kts 282°
2026-05-04 18:46 55.57435 12.35584 2780 ft 239 kts 282°
2026-05-04 18:47 55.57774 12.32698 3114 ft 241 kts 282°
2026-05-04 18:47 55.58005 12.29777 3449 ft 241 kts 273°
2026-05-04 18:47 55.58092 12.26801 3778 ft 243 kts 274°
2026-05-04 18:47 55.57853 12.23890 4137 ft 245 kts 243°
2026-05-04 18:48 55.56800 12.21472 4546 ft 252 kts 228°
2026-05-04 18:48 55.55959 12.19991 4820 ft 257 kts 226°
2026-05-04 18:48 55.54680 12.17880 5194 ft 257 kts 225°
2026-05-04 18:48 55.53358 12.15750 5701 ft 259 kts 225°
2026-05-04 18:49 55.52016 12.13605 6225 ft 260 kts 225°
2026-05-04 18:49 55.50669 12.11460 6740 ft 262 kts 225°
2026-05-04 18:49 55.49310 12.09306 7235 ft 263 kts 225°
2026-05-04 18:49 55.47943 12.07138 7729 ft 265 kts 227°
2026-05-04 18:50 55.47066 12.04338 8243 ft 264 kts 262°
2026-05-04 18:50 55.47154 12.01130 8993 ft 264 kts 281°
2026-05-04 18:50 55.47587 11.97973 9709 ft 266 kts 282°
2026-05-04 18:50 55.47980 11.94781 10309 ft 269 kts 279°
2026-05-04 18:51 55.48255 11.91450 10714 ft 280 kts 276°
2026-05-04 18:51 55.48508 11.87956 11007 ft 295 kts 277°
2026-05-04 18:51 55.48806 11.84298 11348 ft 307 kts 277°
2026-05-04 18:51 55.49130 11.80548 11838 ft 313 kts 277°
2026-05-04 18:52 55.49451 11.76708 12387 ft 318 kts 277°
2026-05-04 18:52 55.49766 11.72832 12963 ft 322 kts 277°
2026-05-04 18:52 55.50090 11.68843 13565 ft 325 kts 277°
2026-05-04 18:52 55.50411 11.64927 14106 ft 328 kts 277°
2026-05-04 18:53 55.50738 11.60919 14644 ft 331 kts 277°
2026-05-04 18:53 55.51064 11.56884 15180 ft 334 kts 277°
2026-05-04 18:53 55.51392 11.52811 15713 ft 336 kts 277°
2026-05-04 18:53 55.51720 11.48718 16243 ft 339 kts 277°
2026-05-04 18:54 55.52050 11.44581 16768 ft 341 kts 277°
2026-05-04 18:54 55.52381 11.40422 17291 ft 343 kts 277°
2026-05-04 18:54 55.52712 11.36242 17806 ft 346 kts 277°
2026-05-04 18:54 55.53049 11.31966 18318 ft 348 kts 277°
2026-05-04 18:55 55.53381 11.27726 18746 ft 350 kts 277°
2026-05-04 18:55 55.54050 11.19141 19609 ft 355 kts 277°
2026-05-04 18:55 55.54386 11.14793 20026 ft 358 kts 277°
2026-05-04 18:56 55.54723 11.10427 20442 ft 360 kts 277°
2026-05-04 18:56 55.55060 11.06024 20855 ft 363 kts 277°
2026-05-04 18:56 55.55397 11.01600 21265 ft 365 kts 277°
2026-05-04 18:56 55.55735 10.97143 21670 ft 367 kts 277°
2026-05-04 18:57 55.56074 10.92653 22072 ft 370 kts 277°
2026-05-04 18:57 55.56413 10.88142 22474 ft 372 kts 276°
2026-05-04 18:57 55.56753 10.83592 22867 ft 374 kts 276°
2026-05-04 18:57 55.57093 10.79019 23258 ft 376 kts 276°
2026-05-04 18:58 55.57433 10.74418 23628 ft 379 kts 276°
2026-05-04 18:58 55.57748 10.69854 23936 ft 380 kts 273°
2026-05-04 18:58 55.57666 10.65175 24257 ft 382 kts 262°
2026-05-04 18:58 55.57038 10.60547 24566 ft 385 kts 251°
2026-05-04 18:59 55.56067 10.56119 24873 ft 387 kts 249°
2026-05-04 18:59 55.55087 10.51752 25175 ft 389 kts 249°
2026-05-04 18:59 55.54089 10.47295 25459 ft 391 kts 249°
2026-05-04 18:59 55.53089 10.42817 25743 ft 393 kts 249°
2026-05-04 19:00 55.52066 10.38254 26042 ft 395 kts 249°
2026-05-04 19:00 55.51048 10.33733 26329 ft 397 kts 249°
2026-05-04 19:00 55.50023 10.29190 26622 ft 399 kts 249°
2026-05-04 19:00 55.48993 10.24629 26912 ft 401 kts 249°
2026-05-04 19:01 55.47957 10.20049 27193 ft 403 kts 249°
2026-05-04 19:01 55.46927 10.15510 27465 ft 405 kts 249°
2026-05-04 19:01 55.45862 10.10828 27744 ft 407 kts 249°
2026-05-04 19:01 55.44805 10.06189 28017 ft 409 kts 249°
2026-05-04 19:02 55.43741 10.01532 28281 ft 411 kts 249°
2026-05-04 19:02 55.42671 9.96855 28533 ft 413 kts 249°
2026-05-04 19:02 55.41592 9.92150 28783 ft 415 kts 249°
2026-05-04 19:02 55.40504 9.87417 29032 ft 418 kts 249°
2026-05-04 19:03 55.39411 9.82675 29278 ft 420 kts 249°
2026-05-04 19:03 55.38311 9.77912 29535 ft 421 kts 248°
2026-05-04 19:03 55.37205 9.73133 29794 ft 423 kts 248°
2026-05-04 19:03 55.36093 9.68342 30055 ft 424 kts 248°
2026-05-04 19:04 55.34976 9.63535 30275 ft 425 kts 248°
2026-05-04 19:04 55.33855 9.58723 30491 ft 427 kts 248°
2026-05-04 19:04 55.32726 9.53889 30714 ft 428 kts 248°
2026-05-04 19:04 55.31593 9.49048 30916 ft 430 kts 248°
2026-05-04 19:05 55.30453 9.44192 31124 ft 431 kts 248°
2026-05-04 19:05 55.29308 9.39320 31307 ft 433 kts 248°
2026-05-04 19:05 55.28155 9.34430 31500 ft 435 kts 248°
2026-05-04 19:05 55.26994 9.29511 31685 ft 437 kts 248°
2026-05-04 19:06 55.25828 9.24589 31927 ft 437 kts 248°
2026-05-04 19:06 55.24660 9.19668 32171 ft 438 kts 248°
2026-05-04 19:06 55.23488 9.14739 32415 ft 438 kts 248°
2026-05-04 19:06 55.22315 9.09818 32654 ft 438 kts 248°
2026-05-04 19:07 55.21143 9.04912 32909 ft 439 kts 248°
2026-05-04 19:07 55.19943 8.99901 33162 ft 439 kts 248°
2026-05-04 19:07 55.18778 8.95047 33412 ft 438 kts 248°
2026-05-04 19:07 55.17597 8.90136 33726 ft 437 kts 248°
2026-05-04 19:08 55.16418 8.85249 34020 ft 436 kts 248°
2026-05-04 19:08 55.15240 8.80371 34277 ft 435 kts 248°
2026-05-04 19:08 55.14057 8.75490 34487 ft 436 kts 248°
2026-05-04 19:08 55.12874 8.70613 34708 ft 436 kts 248°
2026-05-04 19:09 55.11686 8.65729 34910 ft 437 kts 248°
2026-05-04 19:09 55.10496 8.60849 35118 ft 437 kts 248°
2026-05-04 19:09 55.09301 8.55958 35335 ft 438 kts 248°
2026-05-04 19:09 55.08104 8.51072 35571 ft 438 kts 248°
2026-05-04 19:10 55.06907 8.46197 35825 ft 437 kts 248°
2026-05-04 19:10 55.05709 8.41324 36088 ft 437 kts 248°
2026-05-04 19:10 55.04510 8.36460 36340 ft 436 kts 247°
2026-05-04 19:10 55.03309 8.31601 36591 ft 436 kts 247°
2026-05-04 19:11 55.02109 8.26755 36848 ft 435 kts 247°
2026-05-04 19:11 55.00911 8.21928 37085 ft 435 kts 247°
2026-05-04 19:11 54.99709 8.17095 37315 ft 435 kts 247°
2026-05-04 19:11 54.98504 8.12262 37527 ft 435 kts 247°
2026-05-04 19:12 54.97300 8.07440 37755 ft 434 kts 247°
2026-05-04 19:12 54.94891 7.97831 38007 ft 429 kts 247°
2026-05-04 19:13 54.92521 7.88418 38025 ft 422 kts 247°
2026-05-04 19:13 54.90173 7.79126 38026 ft 418 kts 247°
2026-05-04 19:14 54.87830 7.69895 38020 ft 417 kts 247°
2026-05-04 19:14 54.85483 7.60687 38024 ft 417 kts 246°
2026-05-04 19:15 54.83122 7.51463 38034 ft 418 kts 246°
2026-05-04 19:15 54.80753 7.42246 38030 ft 418 kts 246°
2026-05-04 19:16 54.78378 7.33043 38014 ft 419 kts 246°
2026-05-04 19:16 54.75997 7.23855 38029 ft 418 kts 246°
2026-05-04 19:17 54.73611 7.14682 38037 ft 418 kts 246°
2026-05-04 19:17 54.71217 7.05519 38039 ft 418 kts 246°
2026-05-04 19:18 54.68812 6.96349 38039 ft 420 kts 246°
2026-05-04 19:18 54.66395 6.87174 38044 ft 420 kts 246°
2026-05-04 19:19 54.63970 6.78002 38045 ft 420 kts 246°
2026-05-04 19:19 54.61537 6.68840 38045 ft 420 kts 246°
2026-05-04 19:20 54.59099 6.59694 38046 ft 420 kts 246°
2026-05-04 19:20 54.56654 6.50560 38028 ft 419 kts 245°
2026-05-04 19:21 54.54206 6.41451 38037 ft 421 kts 245°
2026-05-04 19:21 54.51755 6.32367 38037 ft 421 kts 245°
2026-05-04 19:22 54.49283 6.23239 38040 ft 421 kts 245°
2026-05-04 19:22 54.46803 6.14121 38043 ft 421 kts 245°
2026-05-04 19:23 54.44299 6.04951 38044 ft 421 kts 245°
2026-05-04 19:23 54.41820 5.95910 38045 ft 421 kts 245°
2026-05-04 19:24 54.39319 5.86822 38054 ft 421 kts 245°
2026-05-04 19:24 54.36784 5.77646 38054 ft 423 kts 245°
2026-05-04 19:25 54.34274 5.68600 38043 ft 423 kts 245°
2026-05-04 19:25 54.31739 5.59497 38037 ft 423 kts 245°
2026-05-04 19:26 54.29200 5.50414 38045 ft 423 kts 244°
2026-05-04 19:26 54.26653 5.41341 38045 ft 423 kts 244°
2026-05-04 19:27 54.24101 5.32284 38036 ft 423 kts 244°
2026-05-04 19:27 54.21536 5.23217 38053 ft 424 kts 244°
2026-05-04 19:28 54.18961 5.14150 38048 ft 424 kts 244°
2026-05-04 19:28 54.16378 5.05092 38056 ft 424 kts 244°
2026-05-04 19:29 54.13789 4.96044 38038 ft 424 kts 244°
2026-05-04 19:29 54.11196 4.87020 38041 ft 424 kts 244°
2026-05-04 19:30 54.09033 4.79518 38046 ft 424 kts 244°
2026-05-04 19:30 54.06426 4.70509 38045 ft 424 kts 244°
2026-05-04 19:31 54.03812 4.61509 38040 ft 424 kts 244°
2026-05-04 19:31 54.01190 4.52517 38046 ft 424 kts 244°
2026-05-04 19:32 53.98562 4.43536 38049 ft 424 kts 244°
2026-05-04 19:32 53.95912 4.34519 38045 ft 424 kts 243°
2026-05-04 19:33 53.93292 4.25633 38045 ft 424 kts 243°
2026-05-04 19:33 53.90648 4.16703 38055 ft 425 kts 243°
2026-05-04 19:34 53.87970 4.07690 38059 ft 425 kts 243°
2026-05-04 19:34 53.85307 3.98763 38059 ft 425 kts 243°
2026-05-04 19:34 53.83868 3.94473 38073 ft 424 kts 230°
2026-05-04 19:35 53.81754 3.90870 38056 ft 427 kts 221°
2026-05-04 19:35 53.77094 3.84806 38058 ft 425 kts 219°
2026-05-04 19:36 53.72558 3.78429 38057 ft 424 kts 221°
2026-05-04 19:36 53.67978 3.72123 38056 ft 425 kts 219°
2026-05-04 19:37 53.63402 3.65844 38054 ft 424 kts 220°
2026-05-04 19:37 53.58796 3.59506 38064 ft 426 kts 220°
2026-05-04 19:38 53.54193 3.53226 38060 ft 426 kts 220°
2026-05-04 19:38 53.49630 3.46992 38054 ft 426 kts 220°
2026-05-04 19:39 53.45030 3.40743 38054 ft 426 kts 220°
2026-05-04 19:39 53.40408 3.34533 38057 ft 426 kts 214°
2026-05-04 19:40 53.35163 3.29856 38057 ft 427 kts 208°
2026-05-04 19:40 53.29857 3.25367 38043 ft 427 kts 208°
2026-05-04 19:41 53.24554 3.20840 38041 ft 428 kts 208°
2026-05-04 19:41 53.19250 3.16357 37903 ft 427 kts 208°
2026-05-04 19:41 53.16610 3.14114 37647 ft 425 kts 208°
2026-05-04 19:42 53.13982 3.11891 37363 ft 423 kts 208°
2026-05-04 19:42 53.11364 3.09684 37103 ft 422 kts 208°
2026-05-04 19:42 53.08748 3.07486 36840 ft 420 kts 208°
2026-05-04 19:42 53.06142 3.05299 36586 ft 419 kts 208°
2026-05-04 19:43 53.03536 3.03111 36354 ft 420 kts 208°
2026-05-04 19:43 53.00927 3.00925 36103 ft 419 kts 208°
2026-05-04 19:43 52.98324 2.98747 35857 ft 420 kts 208°
2026-05-04 19:43 52.95716 2.96569 35609 ft 419 kts 208°
2026-05-04 19:44 52.93116 2.94401 35384 ft 418 kts 208°
2026-05-04 19:44 52.90523 2.92240 35135 ft 417 kts 208°
2026-05-04 19:44 52.87933 2.90085 34897 ft 416 kts 208°
2026-05-04 19:44 52.85345 2.87935 34666 ft 416 kts 208°
2026-05-04 19:45 52.82764 2.85794 34435 ft 415 kts 208°
2026-05-04 19:45 52.80196 2.83665 34142 ft 416 kts 208°
2026-05-04 19:45 52.77590 2.81508 33754 ft 416 kts 208°
2026-05-04 19:45 52.75003 2.79370 33354 ft 416 kts 208°
2026-05-04 19:46 52.72413 2.77230 32953 ft 416 kts 208°
2026-05-04 19:46 52.69831 2.75097 32567 ft 415 kts 208°
2026-05-04 19:46 52.67244 2.72964 32174 ft 415 kts 207°
2026-05-04 19:46 52.64663 2.70840 31795 ft 415 kts 207°
2026-05-04 19:47 52.62082 2.68719 31423 ft 414 kts 207°
2026-05-04 19:47 52.59516 2.66612 31054 ft 412 kts 207°
2026-05-04 19:47 52.56960 2.64516 30691 ft 409 kts 207°
2026-05-04 19:47 52.54423 2.62439 30228 ft 403 kts 207°
2026-05-04 19:48 52.51961 2.60425 29639 ft 389 kts 207°
2026-05-04 19:48 52.49537 2.58445 29048 ft 392 kts 207°
2026-05-04 19:48 52.47109 2.56462 28487 ft 384 kts 207°
2026-05-04 19:48 52.44728 2.54524 27929 ft 384 kts 207°
2026-05-04 19:49 52.42329 2.52574 27480 ft 383 kts 207°
2026-05-04 19:49 52.39941 2.50634 27096 ft 384 kts 207°
2026-05-04 19:49 52.37553 2.48696 26709 ft 380 kts 207°
2026-05-04 19:49 52.35216 2.46802 26337 ft 382 kts 208°
2026-05-04 19:50 52.32805 2.44851 25950 ft 378 kts 208°
2026-05-04 19:50 52.30486 2.42976 25584 ft 379 kts 208°
2026-05-04 19:50 52.28129 2.41072 25216 ft 375 kts 208°
2026-05-04 19:50 52.25795 2.39190 24850 ft 376 kts 207°
2026-05-04 19:51 52.23481 2.37325 24484 ft 373 kts 207°
2026-05-04 19:51 52.21126 2.35431 24197 ft 374 kts 207°
2026-05-04 19:51 52.18807 2.33568 23905 ft 371 kts 207°
2026-05-04 19:51 52.16489 2.31706 23620 ft 371 kts 208°
2026-05-04 19:52 52.14153 2.29833 23284 ft 369 kts 208°
2026-05-04 19:52 52.11879 2.28011 23076 ft 372 kts 207°
2026-05-04 19:52 52.09546 2.26146 22905 ft 373 kts 207°
2026-05-04 19:52 52.07221 2.24290 22744 ft 372 kts 208°
2026-05-04 19:53 52.04904 2.22441 22538 ft 370 kts 207°
2026-05-04 19:53 52.02592 2.20597 22367 ft 370 kts 207°
2026-05-04 19:53 52.00274 2.18751 22182 ft 371 kts 208°
2026-05-04 19:53 51.97950 2.16903 22035 ft 374 kts 207°
2026-05-04 19:54 51.95612 2.15046 22040 ft 374 kts 207°
2026-05-04 19:54 51.93266 2.13183 22039 ft 376 kts 207°
2026-05-04 19:54 51.90905 2.11313 22037 ft 378 kts 207°
2026-05-04 19:54 51.88546 2.09447 21822 ft 376 kts 207°
2026-05-04 19:55 51.86203 2.07594 21610 ft 374 kts 208°
2026-05-04 19:55 51.83863 2.05745 21349 ft 373 kts 207°
2026-05-04 19:55 51.81521 2.03898 21095 ft 375 kts 207°
2026-05-04 19:55 51.79176 2.02051 20844 ft 374 kts 207°
2026-05-04 19:56 51.76825 2.00199 20588 ft 379 kts 206°
2026-05-04 19:56 51.74455 1.98337 20329 ft 378 kts 206°
2026-05-04 19:56 51.72088 1.96480 20090 ft 378 kts 207°
2026-05-04 19:56 51.69728 1.94629 19849 ft 376 kts 207°
2026-05-04 19:57 51.67378 1.92787 19606 ft 375 kts 207°
2026-05-04 19:57 51.65142 1.90660 19375 ft 374 kts 222°
2026-05-04 19:57 51.63313 1.87634 19152 ft 372 kts 229°
2026-05-04 19:57 51.61660 1.84444 18916 ft 370 kts 231°
2026-05-04 19:58 51.59997 1.81254 18682 ft 370 kts 229°
2026-05-04 19:58 51.58282 1.78182 18451 ft 370 kts 227°
2026-05-04 19:58 51.56580 1.75164 18207 ft 368 kts 228°
2026-05-04 19:58 51.54889 1.72085 17940 ft 369 kts 229°
2026-05-04 19:59 51.53218 1.69012 17627 ft 353 kts 228°
2026-05-04 19:59 51.51647 1.66156 17301 ft 326 kts 227°
2026-05-04 19:59 51.50150 1.63461 17019 ft 322 kts 227°
2026-05-04 19:59 51.48794 1.60633 16753 ft 319 kts 244°
2026-05-04 20:00 51.47947 1.57429 16504 ft 316 kts 250°
2026-05-04 20:00 51.47238 1.54055 16237 ft 313 kts 251°
2026-05-04 20:00 51.46533 1.50773 15978 ft 311 kts 249°
2026-05-04 20:00 51.45773 1.47540 15717 ft 309 kts 249°
2026-05-04 20:01 51.45014 1.44338 15464 ft 307 kts 249°
2026-05-04 20:01 51.44276 1.41136 15212 ft 305 kts 249°
2026-05-04 20:01 51.43473 1.38014 14963 ft 302 kts 236°
2026-05-04 20:01 51.42046 1.35608 14757 ft 298 kts 217°
2026-05-04 20:02 51.40334 1.33651 14537 ft 311 kts 212°
2026-05-04 20:02 51.38503 1.31683 14327 ft 319 kts 214°
2026-05-04 20:02 51.36717 1.29572 14107 ft 319 kts 217°
2026-05-04 20:02 51.34959 1.27417 14039 ft 319 kts 216°
2026-05-04 20:03 51.33172 1.25290 14035 ft 321 kts 216°
2026-05-04 20:03 51.31363 1.23182 14030 ft 321 kts 215°
2026-05-04 20:03 51.29560 1.21065 14032 ft 322 kts 216°
2026-05-04 20:03 51.27760 1.18936 14030 ft 322 kts 216°
2026-05-04 20:04 51.25961 1.16813 14025 ft 322 kts 215°
2026-05-04 20:04 51.24154 1.14691 14014 ft 323 kts 216°
2026-05-04 20:04 51.22418 1.12654 13779 ft 323 kts 215°
2026-05-04 20:04 51.21351 1.11402 13619 ft 322 kts 216°
2026-05-04 20:05 51.19550 1.09288 13348 ft 320 kts 215°
2026-05-04 20:05 51.17761 1.07192 13085 ft 319 kts 215°
2026-05-04 20:05 51.15967 1.05093 12819 ft 318 kts 215°
2026-05-04 20:05 51.14176 1.02999 12548 ft 316 kts 215°
2026-05-04 20:06 51.12424 1.00952 12301 ft 315 kts 215°
2026-05-04 20:06 51.10663 0.98897 12050 ft 314 kts 216°
2026-05-04 20:06 51.08905 0.96846 11793 ft 312 kts 216°
2026-05-04 20:06 51.07155 0.94808 11538 ft 311 kts 216°
2026-05-04 20:07 51.05573 0.92503 11306 ft 309 kts 236°
2026-05-04 20:07 51.04540 0.89518 11074 ft 309 kts 245°
2026-05-04 20:07 51.03685 0.86395 10821 ft 307 kts 246°
2026-05-04 20:07 51.02821 0.83292 10601 ft 306 kts 244°
2026-05-04 20:08 51.02202 0.81241 10435 ft 305 kts 243°
2026-05-04 20:08 51.01274 0.78233 10200 ft 300 kts 244°
2026-05-04 20:08 51.00382 0.75271 10026 ft 293 kts 244°
2026-05-04 20:08 50.99518 0.72361 10024 ft 291 kts 244°
2026-05-04 20:09 50.98651 0.69461 9965 ft 292 kts 244°
2026-05-04 20:09 50.97777 0.66558 9689 ft 291 kts 244°
2026-05-04 20:09 50.96906 0.63670 9429 ft 289 kts 244°
2026-05-04 20:09 50.96041 0.60798 9174 ft 288 kts 244°
2026-05-04 20:10 50.95181 0.57944 8901 ft 287 kts 244°
2026-05-04 20:10 50.94321 0.55098 8635 ft 286 kts 244°
2026-05-04 20:10 50.93463 0.52261 8379 ft 285 kts 244°
2026-05-04 20:10 50.92609 0.49440 8123 ft 284 kts 244°
2026-05-04 20:11 50.91758 0.46625 7866 ft 282 kts 246°
2026-05-04 20:11 50.91357 0.43629 7627 ft 280 kts 276°
2026-05-04 20:11 50.91767 0.40623 7371 ft 280 kts 288°
2026-05-04 20:11 50.92406 0.37705 7016 ft 281 kts 290°
2026-05-04 20:12 50.93020 0.34764 6650 ft 278 kts 287°
2026-05-04 20:12 50.93537 0.31847 6271 ft 273 kts 286°
2026-05-04 20:12 50.94039 0.28965 5875 ft 269 kts 287°
2026-05-04 20:12 50.94538 0.26128 5483 ft 268 kts 285°
2026-05-04 20:13 50.94451 0.23218 5060 ft 272 kts 239°
2026-05-04 20:13 50.93704 0.20559 4813 ft 263 kts 264°
2026-05-04 20:13 50.93912 0.17771 4973 ft 253 kts 295°
2026-05-04 20:13 50.94861 0.15434 5549 ft 260 kts 306°
2026-05-04 20:14 50.96254 0.13605 5266 ft 262 kts 339°
2026-05-04 20:14 50.97862 0.12321 5027 ft 261 kts 317°
2026-05-04 20:14 50.98757 0.09853 4786 ft 262 kts 281°
2026-05-04 20:14 50.98746 0.06966 4536 ft 262 kts 264°
2026-05-04 20:15 50.98558 0.04108 4238 ft 260 kts 267°
2026-05-04 20:15 50.98582 0.01249 3944 ft 258 kts 278°
2026-05-04 20:15 50.98934 -0.01512 3714 ft 254 kts 286°
2026-05-04 20:15 50.99369 -0.04201 3519 ft 250 kts 284°
2026-05-04 20:16 50.99735 -0.06882 3310 ft 247 kts 282°
2026-05-04 20:16 51.00064 -0.09537 3098 ft 244 kts 283°
2026-05-04 20:16 51.00397 -0.12149 2999 ft 238 kts 283°
2026-05-04 20:16 51.00732 -0.14712 2994 ft 237 kts 283°
2026-05-04 20:17 51.01065 -0.17265 2995 ft 236 kts 283°
2026-05-04 20:17 51.01395 -0.19812 3035 ft 235 kts 283°
2026-05-04 20:17 51.01725 -0.22369 3018 ft 236 kts 283°
2026-05-04 20:17 51.02054 -0.24929 3002 ft 237 kts 283°
2026-05-04 20:18 51.02383 -0.27482 3008 ft 235 kts 283°
2026-05-04 20:18 51.02711 -0.30035 3005 ft 236 kts 283°
2026-05-04 20:18 51.03024 -0.32485 2987 ft 216 kts 283°
2026-05-04 20:18 51.03311 -0.34740 2990 ft 206 kts 283°
2026-05-04 20:19 51.03465 -0.37011 2997 ft 207 kts 273°
2026-05-04 20:19 51.03551 -0.39283 2995 ft 206 kts 276°
2026-05-04 20:19 51.03648 -0.41543 2992 ft 205 kts 275°
2026-05-04 20:19 51.03728 -0.43815 2990 ft 206 kts 275°
2026-05-04 20:20 51.03802 -0.46084 2995 ft 206 kts 275°
2026-05-04 20:20 51.03877 -0.48355 2996 ft 206 kts 274°
2026-05-04 20:20 51.04095 -0.50586 2983 ft 204 kts 294°
2026-05-04 20:20 51.04845 -0.52465 2988 ft 201 kts 317°
2026-05-04 20:21 51.05961 -0.53666 2981 ft 188 kts 341°
2026-05-04 20:21 51.07032 -0.54067 2989 ft 184 kts 359°
2026-05-04 20:21 51.09383 -0.52873 2997 ft 179 kts 40°
2026-05-04 20:22 51.10184 -0.51368 2998 ft 179 kts 60°
2026-05-04 20:22 51.10586 -0.49498 3000 ft 181 kts 76°
2026-05-04 20:22 51.10854 -0.47548 2997 ft 180 kts 77°
2026-05-04 20:22 51.11116 -0.45637 2992 ft 169 kts 76°
2026-05-04 20:23 51.11359 -0.43886 2986 ft 160 kts 77°
2026-05-04 20:23 51.11602 -0.42142 2939 ft 161 kts 76°
2026-05-04 20:23 51.11839 -0.40439 2737 ft 151 kts 76°
2026-05-04 20:23 51.12058 -0.38867 2484 ft 143 kts 76°
2026-05-04 20:24 51.12271 -0.37333 2290 ft 141 kts 76°
2026-05-04 20:24 51.12484 -0.35802 2170 ft 142 kts 76°
2026-05-04 20:24 51.12701 -0.34251 1983 ft 140 kts 76°
2026-05-04 20:24 51.12909 -0.32757 1791 ft 140 kts 76°
2026-05-04 20:25 51.13118 -0.31252 1609 ft 140 kts 76°
2026-05-04 20:25 51.13330 -0.29738 1413 ft 139 kts 76°
2026-05-04 20:25 51.13539 -0.28231 1224 ft 140 kts 76°
2026-05-04 20:25 51.13748 -0.26729 1033 ft 140 kts 76°
2026-05-04 20:26 51.13960 -0.25209 834 ft 141 kts 76°
2026-05-04 20:26 51.14174 -0.23672 646 ft 142 kts 76°
2026-05-04 20:26 51.14384 -0.22148 454 ft 142 kts 76°
2026-05-04 20:26 51.14597 -0.20615 267 ft 141 kts 76°
2026-05-04 20:27 51.14792 -0.19227 213 ft 103 kts 77°
2026-05-04 20:27 51.14914 -0.18363 214 ft 63 kts 77°
2026-05-04 20:27 51.15017 -0.17885 216 ft 36 kts 54°
2026-05-04 20:27 51.15096 -0.17763 207 ft 0 kts 359°
2026-05-04 20:28 51.15101 -0.17763 207 ft 2 kts 359°
2026-05-04 20:28 51.15125 -0.17765 206 ft 5 kts 357°
2026-05-04 20:28 51.15161 -0.17771 214 ft 6 kts 353°
2026-05-04 20:29 51.15189 -0.17777 206 ft 0 kts 353°
2026-05-04 20:29 51.15190 -0.17777 206 ft 1 kts 353°
2026-05-04 20:29 51.15201 -0.17779 206 ft 3 kts 353°
2026-05-04 20:29 51.15232 -0.17780 206 ft 5 kts
2026-05-04 20:30 51.15259 -0.17753 207 ft 4 kts 54°
2026-05-04 20:30 51.15264 -0.17720 213 ft 4 kts 77°
2026-05-04 20:30 51.15274 -0.17652 212 ft 8 kts 77°
2026-05-04 20:30 51.15289 -0.17542 216 ft 12 kts 78°
2026-05-04 20:31 51.15310 -0.17406 214 ft 13 kts 56°
2026-05-04 20:31 51.15361 -0.17328 209 ft 7 kts 68°
2026-05-04 20:31 51.15378 -0.17246 213 ft 9 kts 74°
2026-05-04 20:31 51.15403 -0.17138 212 ft 11 kts 64°
2026-05-04 20:32 51.15421 -0.17029 213 ft 10 kts 78°
2026-05-04 20:32 51.15437 -0.16915 210 ft 11 kts 78°
2026-05-04 20:32 51.15452 -0.16843 213 ft 2 kts 40°
2026-05-04 20:32 51.15461 -0.16838 213 ft 2 kts 18°
2026-05-04 20:33 51.15475 -0.16839 206 ft 3 kts 352°
2026-05-04 20:33 51.15489 -0.16842 206 ft 2 kts 353°
2026-05-04 20:33 51.15499 -0.16845 208 ft 0 kts 349°
2026-05-04 20:33 51.15502 -0.16846 207 ft 0 kts 351°